www.pogodaiklimat.ru

Погода и климат >> Архив погоды >> Россия >> Якутия >> Андрюшкино


ПОГОДА в Андрюшкино

  • Прогноз погоды в Андрюшкино
  • Монитор погоды в Андрюшкино

АРХИВ ПОГОДЫ в Андрюшкино

Время (UTC), дата Ветер
(напр.,м/с)
 
Видим.   Явления Облачность Т
(С)
Тd
(С)
f
(%)
Тe
(С)
Тes
(С)
Комфортность P
(гПа)
Po
(гПа)
Тmin
(С)
Tmax
(С)
R
(мм)
R24
(мм)
S
(см)
09 13.09 ЮВ 2 50 км 1/0
[Ci fib]
+6.1 -4.3 47 +4 +4 1009.1 1007.1 +10.7
12 13.09 ЮВ 2 50 км 4/0
[Ci fib]
+5.1 -3.1 55 +3 +3 1008.0 1006.0
15 13.09 ЮВ 1 50 км 6/0
[Ci fib]
+4.3 -3.9 55 +4 +4 1006.2 1004.2
18 13.09 В 3 50 км 4/0
[Ci fib]
+2.5 -4.5 60 -1 -1 1003.7 1001.7
21 13.09 В 4 50 км 8/0
[Ac trans Ci fib]
+3.9 -4.1 56 0 0 1001.4 999.4 +2.3
00 14.09 ЮВ 5 50 км 9/0
[Ac As]
+7.6 -2.7 48 +4 +5 999.7 997.7
03 14.09 ЮВ 5 50 км 10/0
[Ac As]
+10.3 -2.6 40 +8 +8 997.8 995.9
06 14.09 ЮВ 5 50 км 8/0
[Ac trans Ci fib]
+12.1 0.0 43 +10 +10 997.3 995.4
09 14.09 ЮВ 3 50 км 8/0
[Ac As Ci fib]
+9.0 +2.1 62 +7 +7 998.1 996.2 +12.6
12 14.09 ЮВ 2 50 км 6/0
[Ac trans Cs]
+6.5 +1.3 69 +4 +4 998.8 996.8
15 14.09 В 2 50 км 4/0
[Ci fib]
+4.5 +0.9 77 +2 +2 999.4 997.4
18 14.09 С 1 50 км 6/0
[Ac trans Ci fib]
+1.4 +0.3 92 -1 -1 1000.0 998.0
21 14.09 С 1 50 км 4/0
[Ac trans Ci fib]
+1.0 -0.1 92 -1 -1 1000.7 998.7 -0.1
00 15.09 штиль 0 50 км 4/0
[Ci fib]
+11.0 +4.3 63 +11 +14 1001.2 999.3
03 15.09 В 1 50 км 4/0
[Ac trans Ci fib]
+15.6 +5.3 50 +16 +19 1001.7 999.8
06 15.09 В 2 50 км 6/0
[Ac trans Ci fib]
+15.0 +5.3 52 +15 +15 1002.5 1000.6
09 15.09 В 1 50 км 3/0
[Ac trans Ci fib]
+11.9 +3.6 57 +12 +12 1004.0 1002.1 +16.2
12 15.09 В 1 50 км 3/0
[Ac trans]
+7.1 +3.6 78 +6 +6 1005.3 1003.3
15 15.09 В 1 50 км 3/0
[Ac trans]
+6.2 +3.6 83 +5 +5 1006.3 1004.3
18 15.09 штиль 0 50 км 3/0
[Ac trans]
+5.8 +3.4 85 +5 +5 1007.3 1005.3
21 15.09 Ю 1 50 км 3/0
[Ac As Ci fib]
+5.2 +3.8 91 +4 +4 1008.4 1006.4 +5.0
00 16.09 ЮВ 1 50 км 6/0
[Ac trans Ci fib]
+13.6 +4.8 55 +14 +16 1009.2 1007.3
03 16.09 ЮВ 2 50 км 8/0
[Ac trans Ci fib]
+16.2 +4.8 47 +16 +18 1009.6 1007.7
06 16.09 ЮВ 3 50 км 8/0
[Ac trans Ci fib]
+15.5 +4.7 49 +15 +15 1010.5 1008.6
09 16.09 В 1 50 км 10/0
[Ac As Ci fib]
+11.0 +3.5 60 +11 +11 1012.0 1010.0 +16.5
12 16.09 ЮВ 2 10 км слаб. дождь 10/0
[Ac As]
+10.4 +5.6 72 +9 +9 1013.2 1011.2
15 16.09 В 2 50 км в посл. час дождь 10/0
[Ac As Ci fib]
+8.9 +6.5 85 +7 +7 1014.0 1012.0
18 16.09 СВ 2 50 км {дождь} 9/4 600 м
[Sc Ac As Ci fib]
+6.5 +5.6 94 +4 +4 1014.5 1012.5
21 16.09 СВ 2 50 км 9/3 600 м
[Sc Ac As Ci fib]
+5.0 +4.1 94 +2 +2 1014.9 1012.9 +4.9 0.0
00 17.09 СВ 2 50 км 10/3 300 м
[St Ac As]
+6.4 +5.0 91 +4 +4 1015.2 1013.2
03 17.09 С 3 50 км 10/0
[Ac As]
+7.2 +4.7 84 +4 +5 1014.9 1012.9
06 17.09 С 2 50 км 10/0
[Ac As]
+8.0 +5.6 85 +6 +6 1014.4 1012.4
09 17.09 С 3 50 км 9/0
[Ac As]
+7.0 +5.4 90 +4 +4 1014.3 1012.3 +8.1
12 17.09 С 3 50 км 9/0
[Ac As]
+4.5 +4.0 97 +1 +1 1014.4 1012.4
15 17.09 СВ 4 500 м туман ?/? +2.5 +2.2 98 -3 -3 1014.2 1012.2
18 17.09 С 5 500 м туман ?/? +2.3 +2.3 100 -3 -3 1014.1 1012.1
21 17.09 СВ 4 500 м туман ?/? -2.3 -2.0 100 -9 -9 1014.3 1012.3 +2.2
00 18.09 СВ 5 1000 м дымка {туман} 10/10 150 м
[St]
+3.0 +2.8 99 -3 -3 1014.8 1012.8
03 18.09 СВ 6 50 км 10/10 180 м
[St]
+4.1 +2.6 90 -1 -1 1015.2 1013.2
06 18.09 СВ 5 50 км 10/10 330 м
[St]
+4.0 +2.8 92 -1 -1 1015.5 1013.5
09 18.09 СВ 5
{11}
50 км 10/10 240 м
[St]
+2.5 +1.5 93 -3 -3 1016.5 1014.5 +4.3
12 18.09 СВ 6 50 км 10/10 210 м
[St]
+1.5 +0.7 94 -5 -5 1017.4 1015.4
15 18.09 СВ 6 50 км 10/10 240 м
[St]
+1.0 -0.4 90 -5 -5 1018.1 1016.1
18 18.09 СВ 5
{11}
50 км 10/10 300 м
[St]
+0.4 -0.2 96 -6 -6 1018.8 1016.8
21 18.09 СВ 4 4000 м дымка 9/9 270 м
[St]
+0.1 -0.2 98 -6 -6 1020.0 1017.9 0.0
00 19.09 СВ 5 50 км {снег} 9/4 630 м
[Cb cap]
+1.9 -0.3 85 -4 -3 1020.5 1018.5
03 19.09 СВ 6 50 км 8/8 750 м
[Sc]
+2.7 -1.2 75 -3 -3 1020.9 1018.9
06 19.09 СВ 6 50 км 4/4 600 м
[Sc]
+3.4 -1.3 71 -2 -2 1021.5 1019.5
09 19.09 СВ 4 50 км 3/3 600 м
[Sc]
+0.4 -1.9 85 -5 -5 1023.0 1020.9 +3.6 0.0
12 19.09 50 км н/о -0.2 -1.4 92 -6 -6 1024.1 1022.0
15 19.09 СВ 2 10 км слаб. снег 8/0
[As op]
-1.4 -1.9 96 -5 -5 1024.5 1022.4
18 19.09 СВ 3 50 км в посл. час снег 3/3 200 м
[St]
-1.4 -2.5 92 -6 -6 1024.4 1022.3
21 19.09 СВ 2 50 км 6/6 330 м
[St]
-1.8 -2.9 92 -6 -6 1024.8 1022.7 -2.3 0.2 1
00 20.09 СВ 3 50 км {снег} 9/9 540 м
[Sc]
-0.2 -2.3 86 -5 -5 1024.5 1022.4
03 20.09 С 3 50 км {снег} 8/6 750 м
[Sc Ci fib]
+1.5 -2.3 76 -3 -2 1023.3 1021.3
06 20.09 СВ 4 50 км {снег} 9/8 800 м
[Sc Ci fib]
+1.7 -1.1 82 -3 -3 1022.5 1020.5

 

Местоположение метеостанции Андрюшкино (Якутия, Россия): широта 69.17 долгота 154.50 высота над уровнем моря 16 м.

В архиве по умолчанию представлена погода в Андрюшкино за последнюю неделю. Архивные данные за месяц целиком и за предыдущие месяцы, начиная с января 2011 года, Вы можете получить, выбрав интересующий диапазон дат из раскрывающегося списка и нажав кнопку "Ввод!".


*Определитесь, кто Вы:
робот инопланетянин человек

Внимание! Время в таблицах - всемирное. Для получения местного времени необходимо прибавить поправку, которая равна 11 ч.

Смотрите также архив погоды в соседних городах и на ближайших метеорологических станциях:

Погода в Колымской (Якутия, Россия) (171 км)
Погода в Среднеколымске (Якутия, Россия) (194 км)
Погода в Черском (Якутия, Россия) (276 км)
Погода в Константиновской (Чукотка, Россия) (290 км)
Погода в Анюйске (Чукотка, Россия) (296 км)
Погода в Чокурдахе (Якутия, Россия) (302 км)
Погода в Бухте Амбарчик (Чукотка, Россия) (309 км)
Погода в Белой Горе (Якутия, Россия) (340 км)
Погода в Островном (Чукотка, Россия) (406 км)
Погода в Зырянке (Якутия, Россия) (412 км)

Пояснения к столбцам:

Ветер - указаны скорость ветра в м/с - средняя за 10 мин, порывы в срок и между сроками (в фигурных скобках) и направление, откуда дует ветер: С - северный, СВ - северо-восточный, В - восточный, ЮВ - юго-восточный, Ю - южный, ЮЗ - юго-западный, З - западный, СЗ - северо-западный.
Видимость - горизонтальная дальность видимости в метрах или километрах. При видимости от 1 до 10 км при отсутствии осадков обычно наблюдается дымка, при ухудшении видимости до 1 км и менее - туман. В сухую погоду видимость может ухудшаться дымом, пылью или мглою.
Явления - указаны атмосферные явления, наблюдавшиеся в срок или в последний час перед сроком; фигурными скобками обозначены явления, наблюдавшиеся между сроками (за 1-3 часа до срока); квадратными скобками обозначены град или гололедные отложения с указанием их диаметра в мм.
Облачность - указаны через наклонную черту общая и нижняя облачность в баллах и высота нижней границы облаков в метрах; квадратными скобками обозначены формы облаков: Ci - перистые, Cs - перисто-слоистые, Cc - перисто-кучевые, Ac - высококучевые, As - высокослоистые, Sc - слоисто-кучевые, Ns - слоисто-дождевые, Cu - кучевые, Cb - кучево-дождевые. Подробнее классификацию облаков см. в Атласе облаков (PDF).
T - Температура воздуха - температура, измеренная на высоте 2 м над землей.
Td - Температура точки росы - температура, при понижении до которой содержащийся в воздухе водяной пар достигнет насыщения.
f - Относительная влажность воздуха - влажноcть воздуха, измеренная на высоте 2 м над землей.
Te - Эффективная температура - температура, которую ощущает одетый по сезону человек в тени. Характеристика душности погоды. При расчете учитывается влияние влажности воздуха и скорости ветра на теплоощущения человека.
Tes - Эффективная температура на солнце - температура, которую ощущает человек, с поправкой на солнечный нагрев. Характеристика знойности погоды. Зависит от высоты солнца над горизонтом, облачности и скорости ветра. Ночью, в пасмурную погоду, а также при ветре 12 м/с и более поправка равна нулю.
P - Атмосферное давление - приведенное к уровню моря атмосферное давление.
Po - Атмосферное давление - измеренное на уровне метеостанции атмосферное давление.
Tmin - Минимальная температура - минимум температуры воздуха на высоте 2 м над землей.
Tmax - Максимальная температура - максимум температуры воздуха на высоте 2 м над землей.
R - Количество осадков - Количество выпавших осадков за период времени, мм. При наведении курсора мыши на число - период времени, за который выпало указанное количество осадков.
R24 - Количество осадков - Количество выпавших осадков за 24 часа, мм.
S - Снежный покров - Высота снежного покрова, см. При наведении курсора мыши на число - состояние снежного покрова и степень покрытия местности в баллах.